Regional Weather Roundup
Issued by NWS

Home | Current Version | Previous Version | Graphics & Text | Print | Product List | Glossary On
Versions: 1 2 3 4 5 6 7 8 9 10 11 12 13 14 15 16 17 18 19 20 21 22 23 24 25 26 27 28 29 30 31 32 33 34 35 36 37 38 39 40 41 42 43 44 45 46 47 48 49 50
000
ASUS43 KTOP 170459
RWRKS

WEATHER ROUNDUP FOR KANSAS
NATIONAL WEATHER SERVICE GOODLAND KS
1200 AM CDT THU APR 17 2014

NOTE:  "FAIR" INDICATES FEW OR NO CLOUDS BELOW 12,000 FEET WITH NO
SIGNIFICANT WEATHER AND/OR OBSTRUCTIONS TO VISIBILITY.

KSZ001>006-013>018-027>032-041>047-170600-
NORTHWEST KANSAS

CITY           SKY/WX    TMP DP  RH WIND       PRES   REMARKS
GOODLAND       CLOUDY    41  34  76 E6        30.14R
HAYS           CLOUDY    45  30  57 NE15      30.13R
HILL CITY      CLOUDY    42  31  64 NE14      30.16R
RUSSELL        CLOUDY    44  32  62 N21       30.11R
$$

KSZ061>065-074>080-084>089-170600-
SOUTHWEST KANSAS

CITY           SKY/WX    TMP DP  RH WIND       PRES   REMARKS
DODGE CITY     CLOUDY    49  33  54 N16       30.07R
ELKHART          N/A     49  29  46 NE17        N/A
GARDEN CITY    CLOUDY    50  33  52 NE10      30.09R
GREAT BEND     CLOUDY    48  30  49 N21       30.10R
LIBERAL        CLOUDY    52  28  40 NE17      30.07R
$$

KSZ066>073-081>083-090>101-170600-
SOUTHEAST KANSAS

CITY           SKY/WX    TMP DP  RH WIND       PRES   REMARKS
CHANUTE        PTCLDY    51  34  52 SW8       30.04R
COFFEYVILLE    PTCLDY    50  34  54 S8        30.04R
HUTCHINSON     MOCLDY    48  33  56 NE12G21   30.10R
NEWTON         PTCLDY    45  28  53 N12       30.12R
PARSONS        PTCLDY    51  33  50 S7        30.04R
WICHITA INTL   PTCLDY    51  34  52 N17G26    30.08R
WICHITA JABRA  CLEAR     48  35  60 N14       30.08R
WINFIELD       PTCLDY    52  34  50 NW8       30.06R
$$

KSZ007>012-019>026-033>040-048>060-102>105-170600-
NORTHEAST KANSAS

CITY           SKY/WX    TMP DP  RH WIND       PRES   REMARKS
CONCORDIA      CLOUDY    38  28  67 N15G25    30.13R WCI  29
EMPORIA        PTCLDY    46  33  60 N13       30.09R
LAWRENCE       CLOUDY    47  34  60 N21       30.08R
MANHATTAN      PTCLDY    42  30  62 N12       30.12R
OLATHE IND     CLEAR     47  34  60 N15       30.07R
OLATHE EXE     CLEAR     48  33  56 NW14G21   30.05R
SALINA         LGT RAIN  43  30  60 N22G32    30.12R
TOPEKA BILLARD CLOUDY    46  33  60 N14       30.12R
TOPEKA FORBES  MOCLDY    45  32  60 N15       30.10R
$$



USA.gov is the U.S. government's official web portal to all federal, state and local government web resources and services.